{"data":{"norad_id":58284,"epoch":"2026-06-20T05:23:08.458080Z","epoch_age_seconds":7986987,"freshness":"OLD","line1":"1 58284U 23174AE  26171.22440345  .00031292  00000+0  41856-3 0  9998","line2":"2 58284  97.3873 263.8154 0006699 143.3290 216.8425 15.57953137146305","mean_motion":15.57953137,"eccentricity":0.0006699,"inclination_deg":97.3873,"raan_deg":263.8154,"arg_perigee_deg":143.329,"mean_anomaly_deg":216.8425,"bstar":0.00041856,"rev_number":14630,"period_min":92.42896758582,"perigee_km":389.04541297287,"apogee_km":398.11816180421,"semimajor_km":6771.7187873885,"source":"CELESTRAK","updated_at":"2026-06-21T09:00:39.366457Z"}}